GFSFLT2_850_spd_234.txt.gz
Wind_Speed
23 21 20 19 18 17 16 16 15 13 13 13 14 13 12 12 12 13 13 13 13 12 12 11 11 11 12 13 15 11 11 12
24 23 22 21 21 19 17 16 15 14 14 13 14 14 13 13 13 13 13 14 13 12 10 10 10 9 9 11 12 12 7 8
26 25 24 23 22 21 20 19 17 17 16 15 15 14 14 14 13 13 14 14 13 12 10 10 8 8 7 7 12 4 4 4
29 27 26 25 23 23 23 22 21 19 19 18 17 16 15 14 14 15 15 15 15 13 12 11 10 9 6 5 8 3 4 4
30 30 28 27 25 25 25 24 24 23 21 20 19 17 15 15 15 16 17 18 17 16 15 14 12 10 8 9 7 1 5 3
29 31 30 29 24 25 26 26 25 25 25 23 22 19 16 19 18 17 19 20 20 19 18 17 16 14 14 10 12 14 12 9
30 31 32 31 28 23 28 27 26 25 25 25 25 24 21 19 19 17 19 21 21 21 19 18 18 18 18 21 20 17 17 15
31 32 32 33 33 28 24 25 24 26 25 26 26 26 23 23 22 22 20 20 21 21 20 18 18 18 19 21 21 19 17 16
34 34 33 33 36 32 28 28 26 23 26 26 27 28 27 27 24 27 24 20 19 19 19 20 18 20 20 21 19 20 22 21
34 37 36 34 36 37 33 31 31 29 28 29 28 28 31 30 29 27 27 25 23 25 24 24 26 25 22 22 22 22 22 22
37 35 39 36 35 39 37 34 33 33 30 31 32 30 31 34 34 31 31 30 29 28 29 29 28 27 26 25 26 26 24 22
37 36 38 37 36 36 40 36 35 33 35 32 34 34 31 34 36 34 32 32 34 32 31 29 30 28 26 23 24 26 26 26
38 37 40 40 39 41 41 43 38 38 36 36 34 36 34 32 37 37 35 36 36 34 34 33 31 29 27 27 26 23 27 29
42 39 38 43 43 41 41 39 39 38 38 37 38 38 38 37 36 40 39 39 39 36 35 35 34 29 30 29 24 29 35 35
43 42 40 40 43 40 37 35 32 36 39 39 40 40 41 40 39 39 42 42 43 41 39 38 38 35 34 28 14 20 21 23
38 43 43 40 39 42 42 43 44 44 42 42 41 41 43 44 42 41 41 43 45 45 43 42 40 39 32 37 38 26 11 10
39 35 40 42 42 42 43 45 44 43 40 42 43 42 44 44 45 44 44 43 45 46 45 44 44 43 41 32 35 38 37 38
40 43 39 40 46 46 45 45 46 43 40 43 44 45 45 45 45 45 45 45 45 46 45 44 43 43 42 40 36 32 35 33
35 48 49 50 45 46 48 50 48 47 46 44 44 45 47 48 47 46 46 45 46 45 47 46 45 42 42 42 39 40 33 27
40 30 47 48 49 54 42 46 51 52 51 46 45 45 47 47 46 45 45 45 45 45 45 46 44 44 43 41 40 37 36 37

GFSFLT2_850_spd_237.txt.gz
Wind_Speed
26 25 24 23 23 22 20 18 17 15 15 16 16 15 15 15 15 15 15 15 15 14 14 14 14 16 17 16 17 13 10 5
26 26 26 25 24 22 20 19 18 16 16 17 16 15 15 15 15 15 15 15 14 13 12 12 13 13 15 16 13 12 10 4
28 27 27 26 25 24 22 20 19 18 18 18 18 16 15 16 15 15 15 15 14 13 12 12 12 11 12 13 15 5 3 4
30 28 28 28 27 26 25 24 23 21 20 19 19 18 17 16 16 16 15 15 15 14 12 12 10 11 10 12 10 4 2 5
34 31 29 29 29 28 27 26 25 23 22 21 20 20 19 18 18 18 17 17 17 15 13 12 12 13 13 11 4 5 5 6
36 34 32 30 29 29 28 28 27 26 25 23 22 21 21 21 20 19 19 19 18 17 15 14 14 15 14 11 9 11 10 12
37 37 35 33 31 30 29 29 28 27 26 25 25 23 22 20 19 19 19 19 19 19 18 17 17 17 18 15 14 16 18 19
35 38 37 36 34 32 31 30 29 28 27 26 26 26 24 23 20 21 20 20 21 21 20 19 19 19 20 21 21 22 20 22
32 36 38 38 36 32 31 31 30 30 29 28 28 28 27 25 23 23 22 20 18 22 20 21 20 19 19 19 22 23 23 22
30 32 36 38 39 35 32 28 30 31 29 30 29 29 29 28 27 25 25 23 21 21 22 20 22 21 20 21 22 21 22 22
32 33 34 36 39 38 34 31 29 30 29 28 29 29 30 32 31 28 27 28 27 24 23 23 23 24 25 26 26 26 25 24
32 33 34 35 36 41 37 34 33 32 31 31 29 30 30 32 34 33 30 31 31 30 29 28 29 28 28 30 28 28 28 26
39 36 37 37 39 42 47 43 39 38 37 34 34 33 32 33 34 36 36 36 36 35 34 33 34 31 28 31 30 28 28 30
45 39 36 38 40 42 44 47 43 41 40 40 38 37 36 35 36 37 39 39 39 37 38 39 38 33 33 31 32 33 36 35
51 45 40 38 39 42 42 42 45 44 45 44 43 42 39 38 38 38 38 40 41 40 40 41 41 39 37 30 15 24 26 25
55 50 47 43 40 42 45 46 48 49 47 46 45 44 43 41 40 40 40 41 43 43 43 43 41 42 40 42 42 29 15 11
55 53 51 49 46 41 42 46 46 46 45 46 46 45 45 45 44 42 42 42 43 44 45 47 46 45 46 44 44 44 42 39
55 53 52 49 47 46 43 42 42 45 46 46 46 46 45 46 46 47 45 45 45 45 44 46 48 48 49 48 47 45 44 42
47 49 48 47 47 47 46 45 44 44 45 47 47 47 47 48 49 49 50 49 47 46 46 46 48 49 49 51 49 49 44 38
37 40 47 49 48 49 47 46 48 49 48 47 47 48 49 47 48 50 50 49 48 47 47 46 47 48 49 49 49 46 45 45

GFSFLT2_850_spd_240.txt.gz
Wind_Speed
29 28 27 26 25 25 23 21 19 19 19 20 19 18 18 18 18 17 17 17 16 17 18 18 18 17 15 14 13 9 4 2
30 30 29 28 27 25 24 22 21 19 20 20 19 18 18 18 18 17 17 17 17 16 16 16 17 18 15 15 12 9 2 1
31 31 31 30 29 27 25 23 22 21 20 20 20 19 18 18 18 18 17 17 16 15 15 15 16 17 18 15 13 6 0 3
33 32 32 31 30 29 28 26 25 24 23 22 21 20 19 18 18 17 17 17 16 16 15 16 16 17 19 18 15 7 4 1
35 34 33 33 33 31 30 29 27 25 24 23 22 21 20 20 20 20 19 19 18 17 16 15 14 17 18 21 16 8 7 6
37 35 35 34 33 32 31 30 29 27 26 25 24 24 22 21 21 20 19 19 18 17 15 14 15 17 18 21 19 16 10 10
40 38 37 36 34 33 32 31 30 29 27 27 26 25 24 23 22 21 20 19 19 18 17 17 17 18 19 19 18 16 15 15
41 41 39 37 36 35 33 32 31 30 29 28 27 26 25 24 23 22 21 21 19 19 19 18 18 19 20 20 19 17 16 18
41 43 41 40 38 36 35 33 32 32 31 30 29 28 27 26 25 25 23 21 20 20 21 21 21 21 23 23 24 23 22 22
40 42 44 42 40 38 36 35 34 33 33 31 31 30 29 29 27 26 23 23 22 21 22 24 24 25 24 23 24 23 23 24
39 41 44 44 42 40 38 36 35 35 34 33 32 32 32 32 31 29 25 25 26 24 23 23 25 24 24 24 24 24 24 23
37 37 39 43 44 42 41 39 37 34 36 35 33 33 33 34 34 33 29 28 29 28 28 26 26 25 24 25 25 26 28 29
43 41 39 40 46 47 46 45 41 38 35 34 34 32 32 33 34 35 34 34 33 32 30 29 30 28 25 29 30 30 32 33
50 47 43 41 43 45 46 45 43 40 37 35 36 34 33 33 35 35 37 38 37 36 36 35 34 32 32 31 33 33 36 34
58 54 49 44 41 43 44 45 44 41 42 40 39 38 36 35 35 37 38 39 40 40 40 40 40 38 37 31 13 23 29 28
64 61 55 49 46 47 46 46 49 48 46 43 42 42 41 40 39 39 39 40 42 43 43 44 43 45 43 43 44 36 17 16
70 67 63 56 54 52 49 47 44 45 48 47 46 45 45 44 42 43 43 44 44 44 45 46 47 47 48 46 44 46 47 45
72 73 69 63 60 57 53 48 45 48 49 48 48 48 47 48 46 47 46 46 47 46 46 46 47 48 49 50 49 48 50 49
62 68 71 68 66 62 57 50 45 43 41 42 44 47 48 46 46 47 48 48 48 48 49 48 48 48 50 52 53 53 51 49
58 66 68 69 67 65 58 53 48 45 44 42 42 43 41 39 41 44 45 47 46 48 51 50 50 50 50 52 52 53 53 52

GFSFLT2_850_spd_246.txt.gz
Wind_Speed
33 33 31 28 26 24 23 23 24 24 23 21 20 19 20 20 19 19 19 18 18 18 16 15 13 11 12 13 12 11 8 7
34 34 32 30 28 25 23 23 24 24 23 22 20 20 19 19 19 19 19 18 18 18 16 14 13 11 10 11 10 7 5 4
36 35 34 32 30 27 25 23 24 24 24 22 22 21 20 20 19 20 19 19 18 18 17 16 15 13 11 11 8 6 2 0
37 37 36 34 32 30 28 27 26 26 25 25 23 22 21 20 20 20 20 19 19 18 18 17 17 15 13 12 9 8 4 2
39 38 37 36 36 34 31 29 28 27 26 25 24 23 23 22 22 22 22 21 21 20 20 19 18 18 16 16 14 11 8 6
39 39 40 38 37 36 35 33 32 31 29 28 26 26 25 24 24 23 23 22 22 21 20 19 19 19 19 19 17 15 13 11
41 41 40 39 39 38 37 35 34 32 31 30 29 28 27 26 25 24 23 23 22 21 20 20 20 20 21 22 21 20 18 15
42 42 41 40 40 39 37 36 34 33 32 31 30 29 27 26 25 25 24 23 22 21 20 19 19 21 22 23 24 24 23 21
45 43 42 42 41 39 38 36 35 34 33 31 31 29 28 27 26 25 24 23 22 22 22 21 21 21 22 23 24 25 26 24
46 45 45 43 43 41 40 38 36 34 34 33 32 30 29 28 28 26 24 24 23 24 23 23 23 23 23 23 24 25 27 28
47 48 47 45 44 43 42 40 38 36 36 35 34 32 31 30 29 28 26 26 26 25 25 25 25 25 25 25 25 27 27 27
43 47 50 48 46 45 44 43 42 41 39 38 36 35 34 33 31 30 28 29 29 29 28 27 26 25 24 26 26 28 28 29
48 47 49 51 51 51 50 51 48 46 43 41 40 39 37 36 35 34 32 33 31 30 30 29 29 28 26 29 29 29 30 31
49 51 51 50 54 55 54 52 51 48 46 44 43 43 42 40 39 38 36 36 36 35 34 33 32 30 29 28 30 31 31 29
45 48 53 54 53 54 55 54 53 53 52 49 48 48 45 43 42 41 40 39 39 38 37 37 36 34 31 25 11 12 20 19
45 48 50 53 55 58 57 59 61 60 57 53 51 50 47 46 45 44 43 41 42 40 39 38 37 38 36 36 35 36 30 31
42 47 52 52 57 60 59 59 59 60 59 58 55 52 50 47 46 46 46 44 41 40 40 39 38 38 39 38 37 36 37 39
26 44 52 54 55 58 62 62 59 58 61 58 58 55 54 51 49 47 46 45 44 42 41 39 38 38 37 38 39 36 36 35
19 30 49 53 56 57 60 62 62 61 59 59 58 56 57 55 54 51 49 46 45 45 44 43 41 40 39 40 39 41 41 43
25 11 31 44 50 56 57 57 61 63 63 61 59 57 54 56 55 54 52 51 49 47 45 43 42 41 41 40 41 40 40 43

GFSFLT2_850_spd_249.txt.gz
Wind_Speed
32 31 29 25 22 20 19 20 21 20 18 18 18 19 19 18 18 18 18 18 18 17 16 15 14 14 14 15 15 12 10 8
33 33 32 29 25 22 21 20 21 21 20 18 18 18 18 18 18 18 18 18 17 16 15 14 13 14 14 13 12 9 6 5
35 35 34 31 28 26 23 22 22 23 22 20 20 20 20 19 19 19 19 18 18 17 15 14 13 12 13 12 10 8 5 3
36 36 35 33 31 29 27 26 26 26 26 24 23 22 22 21 20 20 19 19 18 18 17 15 15 13 13 13 11 9 5 3
38 38 37 35 35 33 31 30 29 29 28 26 24 23 23 24 23 23 22 22 21 21 20 19 17 16 15 14 13 11 8 6
38 39 38 37 36 35 34 33 32 32 31 29 28 27 26 26 25 25 25 24 23 22 21 20 19 19 18 17 16 15 13 10
38 38 38 39 38 37 36 35 34 33 32 31 30 29 28 27 27 26 26 25 24 23 22 21 21 20 20 20 20 19 18 17
37 39 40 40 40 40 39 37 36 35 34 33 32 31 29 28 27 26 26 25 25 24 23 22 22 22 22 21 22 22 22 21
38 38 41 42 42 41 41 40 38 36 36 35 34 32 31 29 28 28 26 25 24 25 24 24 23 23 23 23 23 24 25 25
39 40 42 43 44 42 42 42 41 39 37 36 35 35 33 32 31 29 27 26 27 27 26 26 26 25 24 24 24 25 26 27
41 42 44 45 45 44 44 44 43 41 41 38 36 36 35 35 33 31 29 29 29 28 28 28 28 27 27 26 27 28 28 29
39 42 46 47 46 45 46 46 46 45 43 41 40 39 37 37 36 34 32 32 32 32 31 30 30 28 28 29 29 30 31 32
32 41 44 49 52 51 50 51 49 48 47 44 42 42 40 39 38 37 36 36 35 33 32 32 31 30 28 30 31 31 31 31
32 36 42 49 51 54 54 52 51 50 49 48 46 45 44 43 42 40 39 38 37 37 36 35 34 34 31 25 19 22 30 28
29 37 42 46 49 53 56 54 52 52 54 52 51 49 49 48 46 44 43 42 41 40 39 39 38 38 33 24 10 12 18 21
18 29 40 42 47 53 57 58 58 57 57 54 54 53 54 52 50 49 48 46 46 45 43 42 41 41 37 38 36 31 15 16
23 18 32 42 45 49 53 57 59 56 57 57 57 55 56 55 53 52 52 51 49 48 47 46 45 43 44 38 37 37 37 33
42 25 14 33 44 46 49 53 55 58 59 58 58 57 58 59 57 57 56 55 54 51 49 48 46 45 44 44 41 33 34 32
59 50 27 13 35 46 47 48 51 53 55 57 54 55 57 59 59 59 59 59 57 55 53 51 49 46 45 43 42 41 39 37
52 57 58 30 8 31 42 42 44 48 50 51 52 54 56 53 54 54 58 59 59 57 55 53 51 48 44 43 43 43 41 41

GFSFLT2_850_spd_252.txt.gz
Wind_Speed
27 26 23 21 18 17 17 18 19 18 17 17 17 17 17 16 17 17 18 17 18 17 17 15 14 13 12 13 13 12 9 5
27 27 26 24 21 19 17 18 19 18 17 17 17 17 17 17 17 17 17 18 18 17 16 15 14 14 13 14 13 11 4 4
27 29 28 26 24 22 20 19 20 20 19 18 18 18 19 18 19 19 18 18 18 17 16 14 13 13 14 14 12 5 5 4
28 29 28 27 22 24 23 22 23 23 22 21 20 17 19 18 19 19 19 19 18 18 16 15 14 11 13 14 12 9 6 6
26 32 29 26 21 21 21 20 21 23 24 24 20 19 19 20 20 22 22 21 21 21 20 18 17 13 13 12 12 11 8 7
27 28 30 31 23 22 21 21 21 21 23 26 21 22 21 20 18 21 23 23 20 21 19 20 18 19 17 15 17 13 11 10
24 27 31 31 31 23 23 23 23 22 23 26 24 22 22 22 21 20 20 20 21 19 19 19 20 20 21 21 20 20 18 15
24 30 34 32 31 28 25 24 23 23 23 25 32 25 24 25 26 24 22 23 21 21 19 18 18 18 20 22 23 21 20 20
25 27 33 36 35 32 28 25 28 24 25 27 33 31 28 28 25 28 24 23 26 24 23 21 19 19 20 19 22 24 24 25
26 26 27 33 34 34 34 29 27 28 27 26 34 36 31 31 26 28 26 24 27 26 24 22 22 21 20 19 20 21 22 24
23 28 30 32 31 29 32 37 35 29 28 28 31 37 37 34 29 24 26 25 25 24 24 24 22 22 22 21 21 22 22 22
19 24 28 33 32 31 28 29 36 36 30 30 31 35 39 38 33 29 28 25 25 25 26 23 24 22 21 22 23 24 25 26
9 21 26 27 30 33 36 35 35 42 38 37 37 37 38 41 40 36 35 32 30 29 28 30 25 25 21 24 25 27 32 32
13 11 20 27 30 32 34 33 34 38 41 39 43 44 43 43 44 41 38 36 37 37 34 28 27 24 24 20 22 22 24 26
31 25 18 21 30 31 32 32 33 33 34 39 45 45 46 47 46 45 44 43 38 42 41 39 29 24 27 22 14 17 17 19
40 35 29 18 21 32 32 35 38 39 37 37 38 45 49 50 51 50 49 48 47 45 43 42 38 31 24 30 34 24 16 17
45 42 38 34 16 24 35 36 38 35 34 36 37 43 50 50 51 52 53 53 52 51 46 45 39 38 35 26 23 28 30 31
42 46 47 44 27 14 25 36 34 33 32 35 34 35 38 44 48 53 55 56 56 55 52 47 44 38 34 34 33 26 26 26
41 43 47 48 50 34 12 21 32 36 33 35 34 33 34 37 42 49 52 55 56 51 51 54 52 46 48 40 37 38 33 28
37 36 40 44 47 47 45 23 12 26 32 33 35 36 34 34 39 45 46 46 49 52 52 51 49 50 52 46 37 34 32 30

GFSFLT2_850_spd_255.txt.gz
Wind_Speed
20 19 17 16 16 16 15 15 15 14 14 14 14 14 13 14 14 13 13 13 14 14 14 13 12 10 10 9 9 11 12 4
18 21 19 18 17 17 16 15 15 14 14 14 15 14 14 14 15 14 14 14 14 14 14 12 12 10 9 10 10 12 7 5
17 19 21 20 18 18 17 17 16 16 15 15 16 15 16 16 16 16 16 16 16 15 14 12 11 11 10 11 11 7 4 5
18 19 18 19 16 17 19 19 19 18 18 18 17 14 15 14 16 17 18 17 18 18 16 15 12 10 10 13 13 6 8 7
19 20 21 20 17 16 18 16 16 17 17 18 17 14 14 15 15 20 20 20 20 20 19 18 16 11 11 12 12 10 10 9
18 19 20 21 18 18 17 17 18 17 18 19 17 17 16 16 16 16 21 21 21 20 19 20 16 16 15 15 16 14 12 11
18 19 21 20 22 19 19 19 19 18 19 21 21 19 18 18 18 16 17 17 20 18 19 18 19 18 18 18 17 17 17 15
18 19 21 21 22 22 20 21 21 21 20 21 24 21 20 19 19 19 19 19 19 20 19 19 19 19 20 21 20 19 19 19
16 18 20 21 22 23 22 20 21 21 22 24 24 25 24 22 21 21 21 21 22 21 22 21 20 20 21 20 21 23 22 22
15 18 18 22 22 22 22 22 22 22 22 23 26 26 27 25 23 23 22 22 21 23 22 22 22 21 21 21 21 21 23 24
4 14 18 18 20 23 24 24 24 23 23 24 26 27 29 30 25 25 25 24 25 24 25 24 23 23 23 23 22 22 23 22
10 4 10 17 19 22 24 25 26 26 26 27 28 28 30 34 32 29 28 26 27 27 26 26 26 24 22 23 26 25 25 26
27 17 6 5 16 22 26 27 28 28 28 30 31 33 32 34 36 37 35 32 31 29 30 30 27 26 24 26 27 27 31 32
32 29 21 11 11 15 26 29 29 29 30 31 33 33 36 36 38 38 38 38 35 36 32 31 29 28 27 24 25 26 30 31
32 34 32 23 16 15 16 24 31 33 31 31 32 36 40 40 38 39 41 38 40 41 41 37 35 29 30 26 17 22 23 22
29 32 36 40 31 14 19 19 22 29 31 32 32 32 36 41 41 41 41 42 44 45 44 43 41 37 27 33 37 27 12 16
25 26 33 38 41 38 23 20 22 26 32 32 32 32 33 37 40 41 43 44 45 44 43 41 42 44 42 32 31 33 35 35
26 27 28 32 34 39 43 33 23 23 28 24 27 28 33 36 38 41 43 46 45 46 45 45 46 47 45 40 37 32 28 26
24 26 28 30 31 30 33 39 41 34 24 16 25 28 29 29 35 38 43 46 48 45 45 46 50 47 49 45 46 45 39 36
24 26 26 29 32 31 29 29 33 38 38 31 15 19 23 28 28 33 39 42 44 47 47 47 47 50 51 51 49 43 43 41

GFSFLT2_850_spd_261.txt.gz
Wind_Speed
12 12 12 11 11 11 10 7 5 3 4 5 5 5 5 6 6 7 8 9 9 9 8 8 8 9 11 13 13 10 10 4
12 12 11 10 10 10 10 9 7 5 5 5 6 6 6 6 7 7 8 8 9 9 8 8 8 7 8 10 12 12 8 8
13 13 12 11 10 10 9 9 9 8 7 6 6 7 7 7 8 9 9 9 10 10 10 10 9 8 6 7 11 11 7 4
11 14 13 12 11 10 10 9 9 9 9 8 8 8 8 8 9 9 11 11 12 12 12 12 11 10 9 8 8 13 6 3
4 11 13 12 12 10 10 10 11 12 11 11 10 10 10 9 11 12 13 14 14 15 16 16 14 12 11 11 9 6 12 9
6 2 5 9 12 8 4 8 13 12 13 13 13 13 14 12 11 13 13 15 17 18 19 18 18 17 15 16 15 12 10 14
10 6 3 2 12 10 9 10 9 8 8 12 13 14 15 13 13 15 15 14 15 22 22 22 22 21 20 19 19 17 17 20
18 12 7 5 3 13 9 11 13 11 12 12 13 11 15 16 17 18 19 19 18 18 22 22 25 22 23 21 24 26 25 25
14 20 15 9 6 8 14 9 12 13 14 15 17 17 15 17 18 23 23 24 22 22 20 19 20 22 23 23 23 24 27 30
11 10 13 16 13 8 8 18 12 13 15 16 19 21 22 22 22 23 24 24 25 26 24 24 24 24 26 28 27 28 29 29
11 10 12 8 11 14 12 12 14 18 19 18 20 22 25 27 27 25 29 26 29 31 32 30 32 31 32 33 33 34 34 32
19 12 4 4 6 11 13 13 18 16 21 22 22 23 25 29 30 31 28 30 35 33 33 37 34 35 35 37 35 33 30 31
29 22 19 9 7 9 12 14 13 16 17 17 20 26 24 27 29 33 33 32 32 35 36 36 40 38 33 38 39 38 35 36
27 26 25 24 24 20 11 12 13 14 14 15 19 16 23 27 26 32 31 35 37 35 38 39 40 40 41 40 39 40 43 43
23 24 23 23 22 19 17 10 8 11 16 19 20 19 21 18 22 29 32 37 38 40 38 39 45 43 41 41 23 32 38 38
20 21 20 20 20 21 22 22 22 22 21 20 22 25 24 23 21 30 32 34 33 36 44 43 41 46 48 47 47 48 37 34
18 19 20 21 21 20 19 20 19 19 19 19 19 21 22 23 28 28 24 36 31 34 35 42 46 44 48 49 48 49 51 52
20 21 24 25 23 21 21 20 21 22 21 22 22 22 23 23 24 29 31 30 25 27 29 37 41 50 48 49 51 48 44 44
23 23 24 25 25 23 24 23 23 24 24 25 26 25 24 25 26 27 30 33 33 34 34 29 24 31 45 53 54 56 55 50
19 19 22 25 25 24 25 25 25 26 27 27 26 27 27 27 28 29 28 28 32 33 34 32 32 27 28 33 48 53 55 53

GFSFLT2_850_spd_267.txt.gz
Wind_Speed
19 18 17 15 13 11 10 8 7 6 5 6 6 7 7 6 6 7 8 9 10 12 12 12 11 10 9 8 5 3 4 3
15 17 17 16 14 12 10 9 8 7 6 5 4 4 4 4 5 6 7 8 9 10 11 11 12 12 12 10 9 7 6 5
13 13 14 14 13 11 10 9 7 6 6 5 4 4 3 4 4 5 6 7 8 9 10 11 12 12 13 14 14 12 11 9
14 12 11 10 10 9 8 7 6 5 5 4 3 4 4 5 6 6 7 7 8 9 10 11 12 12 13 14 16 18 17 15
11 11 9 8 7 6 5 3 2 3 4 5 5 5 6 7 7 8 8 9 10 11 12 13 14 15 15 16 16 18 23 22
7 9 8 7 7 4 3 5 6 3 4 6 7 8 8 9 10 9 10 9 10 12 14 15 17 18 19 19 19 19 21 26
7 6 6 6 6 5 4 3 6 7 6 6 7 7 7 9 11 13 12 12 11 12 15 16 16 17 21 23 23 23 23 25
12 9 7 5 3 3 3 2 2 5 4 5 6 8 9 10 11 11 13 15 16 15 15 18 20 21 21 21 24 26 27 28
15 14 11 9 7 9 10 8 10 9 11 13 12 14 13 15 16 16 15 16 18 19 21 22 23 24 25 25 25 26 27 28
12 16 15 15 13 12 12 13 11 10 10 11 12 16 19 18 20 19 22 25 26 25 23 24 27 29 30 31 31 31 31 32
9 11 14 15 12 10 8 7 6 5 5 5 6 12 17 16 20 20 25 27 27 31 31 32 33 30 32 34 36 37 37 37
19 13 10 8 9 9 8 2 1 6 11 8 10 11 16 14 15 18 21 26 29 31 34 34 35 37 39 39 39 39 40 42
20 19 12 12 8 5 6 8 9 8 8 8 9 12 13 15 11 12 19 19 23 24 27 32 35 35 37 44 42 44 43 41
18 18 16 16 13 13 11 12 12 13 12 11 11 11 12 13 13 14 16 17 17 20 24 26 28 28 24 31 35 38 41 36
17 17 17 17 16 13 11 10 10 8 12 14 16 16 16 16 15 16 16 15 16 18 20 22 24 26 25 20 16 23 35 41
16 15 14 15 13 12 12 14 15 16 16 15 15 16 17 18 19 20 20 20 19 18 20 21 22 25 28 24 24 28 23 32
15 14 14 14 13 14 14 14 15 14 13 13 14 16 17 18 19 20 21 22 22 23 22 20 23 25 24 28 32 35 31 28
15 14 15 15 15 15 16 15 15 14 15 17 18 19 19 20 20 22 23 23 25 25 23 23 24 25 26 25 23 25 30 28
15 15 14 14 15 16 16 17 17 18 18 20 21 22 22 23 25 25 24 24 24 24 25 26 25 24 24 29 26 26 26 26
13 13 13 13 14 15 16 17 19 19 20 20 21 22 24 25 25 26 27 27 28 29 28 28 27 25 26 27 31 32 30 30

GFSFLT2_850_spd_270.txt.gz
Wind_Speed
19 17 14 12 10 9 8 8 7 6 5 4 3 2 3 4 5 6 7 8 9 9 9 9 8 6 5 4 4 4 4 4
16 16 14 13 11 9 8 6 6 5 5 4 3 2 2 2 2 2 5 7 7 7 8 8 9 10 9 9 8 8 8 8
16 15 14 13 11 9 8 6 4 3 3 2 2 2 1 1 2 3 3 4 6 8 8 9 10 10 11 13 13 13 12 12
14 14 13 12 10 8 5 4 3 2 2 1 2 2 3 3 4 4 5 5 6 7 8 10 11 12 13 14 15 17 18 17
11 11 11 10 8 6 4 2 1 1 1 2 3 4 5 5 6 6 7 8 8 8 9 11 12 13 14 16 17 18 19 21
10 9 8 7 6 4 4 7 5 2 2 3 3 4 6 7 7 8 8 9 10 11 12 12 13 14 16 18 20 21 21 21
9 10 8 6 5 5 7 4 1 0 2 3 3 3 3 3 4 6 8 10 12 13 14 14 15 16 17 18 19 21 23 24
11 11 10 9 7 8 8 8 6 4 5 5 5 5 6 6 7 8 9 11 12 14 15 16 18 20 21 21 22 22 22 22
14 13 12 11 10 12 12 11 10 9 9 10 11 11 12 11 11 14 15 16 17 20 20 21 23 23 23 22 23 25 27 27
12 13 14 13 14 13 12 13 12 11 10 10 12 11 14 15 15 19 19 21 22 22 24 26 25 27 28 29 29 29 28 29
10 12 12 14 12 11 8 8 9 9 4 5 6 9 10 12 14 18 19 19 23 23 25 27 30 30 32 33 34 34 33 32
10 9 11 9 9 7 7 5 2 2 1 1 3 4 7 8 13 17 19 20 21 20 22 24 26 28 33 36 37 37 35 36
14 15 13 9 10 10 8 6 8 6 7 7 6 6 7 8 9 11 11 15 15 18 19 21 21 26 30 37 38 38 38 33
17 18 17 15 14 13 11 11 11 11 10 9 9 8 8 9 10 11 11 12 13 15 17 18 18 19 21 23 18 27 17 20
15 16 16 15 13 11 11 11 11 10 10 10 11 12 12 12 13 13 13 13 15 17 18 19 19 18 16 9 11 10 35 21
12 13 13 14 13 11 10 11 12 14 13 13 13 14 15 16 16 16 16 16 16 16 17 18 19 20 18 18 14 14 12 18
12 11 12 13 12 11 11 12 13 12 10 10 11 13 14 15 17 18 19 20 19 19 18 18 19 19 19 21 23 23 9 22
12 11 14 13 12 13 13 13 13 11 12 14 15 16 17 18 19 19 19 20 21 22 22 21 21 19 16 19 18 21 28 22
12 11 13 12 11 11 12 13 12 13 15 15 16 18 19 20 21 21 22 22 21 20 20 19 19 19 19 22 23 28 21 24
11 10 10 10 10 12 12 13 14 15 16 17 17 18 19 20 21 22 22 23 23 23 22 23 23 22 23 25 26 23 22 26